Tracking 32407 objects as of 5-Dec-2025
HD Live streaming from Space Station
objects crossing your sky now

DELTA 1 DEB

Track DELTA 1 DEB now!
10-day predictions


NORAD ID: 9978
Int'l Code: 1973-086GH
Perigee: 1,499.9 km
Apogee: 1,587.2 km
Inclination: 102.1 °
Period: 116.8 minutes
Semi major axis: 7914 km
RCS: 0.0391 m2 (small)
Launch date: November 6, 1973
Source: United States (US)
Launch site: AIR FORCE WESTERN TEST RANGE (AFWTR)

Note: This is SATELLITE DEBRIS
Your satellite tracking list
Your tracking list is empty




NASA's NSSDC Master Catalog

Two Line Element Set (TLE):
1 09978U 73086GH  25335.35416830 -.00000489  00000-0 -36277-2 0  9995
2 09978 102.0547 277.1415 0055143 311.8927 200.0586 12.33006358268277
Source of the keplerian elements: AFSPC